sat.trackr.live / text

‹ back to catalog

STARLINK-36050

NORAD 66602 · 2025-270Q

PAYLOAD ACTIVE UNKNOWN

§ Identity

Operator
Country
US
Launch date
2025-11-22
Launch site
AFETR
Launch vehicle
Mass (kg)
RCS (m²)

Purposes: comms

External: N2YO · Heavens-Above · Gunter

§ Orbital elements

Epoch: 2026-09-20T16:17:11.084064Z

Period
94.27 min
Inclination
42.9964°
Eccentricity
0.0000792
Mean motion
15.27580361 rev/d
Perigee alt
482.5 km
Apogee alt
483.6 km
Semi-major
6,861.2 km
B*
5.0988e-4
RAAN
35.2673°
Arg perigee
268.7327°
Mean anomaly
91.3434°
Rev number
4,742

§ Raw data

STARLINK-360501 66602U 25270Q   26263.67860051  .00013795  00000+0  50988-3 0  99952 66602  42.9964  35.2673 0000792 268.7327  91.3434 15.27580361 47424

JSON: /api/v1/satellites/66602 · /tle

For live sub-satellite position, see the globe view (requires WebGL).

§ Visibility from observer

Set your observer location to see the next 7 days of passes ≥ 10°. The values pass through the URL so the page stays shareable.

No JS? Fill the form by hand. The geolocation button needs JavaScript.